owner,sensor,date,latitude,longitude,vertical_datum,sea_water_temperature,qcFlag
Amerada Hess,ioos:station:wmo:42401:1,2020-05-01T00:18:00Z,27.5093,-90.5564,26.0,24.4,11111222
Amerada Hess,ioos:station:wmo:42401:1,2020-05-01T00:38:00Z,27.5093,-90.5564,26.0,24.4,11111222
Amerada Hess,ioos:station:wmo:42401:1,2020-05-01T00:58:00Z,27.5093,-90.5564,26.0,24.4,11111222
Amerada Hess,ioos:station:wmo:42401:1,2020-05-01T01:18:00Z,27.5093,-90.5564,26.0,24.4,11111222
Amerada Hess,ioos:station:wmo:42401:1,2020-05-01T01:38:00Z,27.5093,-90.5564,26.0,24.3,11111222
Amerada Hess,ioos:station:wmo:42401:1,2020-05-01T01:58:00Z,27.5093,-90.5564,26.0,24.3,11111222
Amerada Hess,ioos:station:wmo:42401:1,2020-05-01T02:18:00Z,27.5093,-90.5564,26.0,24.4,11111222
Amerada Hess,ioos:station:wmo:42401:1,2020-05-01T02:38:00Z,27.5093,-90.5564,26.0,24.4,11111222
Amerada Hess,ioos:station:wmo:42401:1,2020-05-01T02:58:00Z,27.5093,-90.5564,26.0,24.3,11111222
Amerada Hess,ioos:station:wmo:42401:1,2020-05-01T03:17:00Z,27.5093,-90.5564,26.0,24.5,11111222
Amerada Hess,ioos:station:wmo:42401:1,2020-05-01T03:37:00Z,27.5093,-90.5564,26.0,24.4,11111222
Amerada Hess,ioos:station:wmo:42401:1,2020-05-01T03:57:00Z,27.5093,-90.5564,26.0,24.4,11111222
Amerada Hess,ioos:station:wmo:42401:1,2020-05-01T04:17:00Z,27.5093,-90.5564,26.0,24.3,11111222
Amerada Hess,ioos:station:wmo:42401:1,2020-05-01T04:37:00Z,27.5093,-90.5564,26.0,24.4,11111222
Amerada Hess,ioos:station:wmo:42401:1,2020-05-01T04:57:00Z,27.5093,-90.5564,26.0,24.5,11111222
Amerada Hess,ioos:station:wmo:42401:1,2020-05-01T05:17:00Z,27.5093,-90.5564,26.0,24.8,11111222
Amerada Hess,ioos:station:wmo:42401:1,2020-05-01T05:36:00Z,27.5093,-90.5564,26.0,24.9,11111222
Amerada Hess,ioos:station:wmo:42401:1,2020-05-01T05:56:00Z,27.5093,-90.5564,26.0,25.0,11111222
Amerada Hess,ioos:station:wmo:42401:1,2020-05-01T06:15:00Z,27.5093,-90.5564,26.0,25.1,11111222
Amerada Hess,ioos:station:wmo:42401:1,2020-05-01T06:35:00Z,27.5093,-90.5564,26.0,25.2,11111222
Amerada Hess,ioos:station:wmo:42401:1,2020-05-01T06:55:00Z,27.5093,-90.5564,26.0,25.2,11111222
Amerada Hess,ioos:station:wmo:42401:1,2020-05-01T07:14:00Z,27.5093,-90.5564,26.0,25.3,11111222
Amerada Hess,ioos:station:wmo:42401:1,2020-05-01T07:34:00Z,27.5093,-90.5564,26.0,25.3,11111222
Amerada Hess,ioos:station:wmo:42401:1,2020-05-01T07:54:00Z,27.5093,-90.5564,26.0,25.3,11111222
Amerada Hess,ioos:station:wmo:42401:1,2020-05-01T08:14:00Z,27.5093,-90.5564,26.0,25.3,11111222
Amerada Hess,ioos:station:wmo:42401:1,2020-05-01T08:34:00Z,27.5093,-90.5564,26.0,25.3,11111222
Amerada Hess,ioos:station:wmo:42401:1,2020-05-01T08:54:00Z,27.5093,-90.5564,26.0,25.3,11111222
Amerada Hess,ioos:station:wmo:42401:1,2020-05-01T09:14:00Z,27.5093,-90.5564,26.0,25.4,11111222
Amerada Hess,ioos:station:wmo:42401:1,2020-05-01T09:34:00Z,27.5093,-90.5564,26.0,25.4,11111222
Amerada Hess,ioos:station:wmo:42401:1,2020-05-01T09:54:00Z,27.5093,-90.5564,26.0,25.4,11111222
Amerada Hess,ioos:station:wmo:42401:1,2020-05-01T10:14:00Z,27.5093,-90.5564,26.0,25.4,11111222
Amerada Hess,ioos:station:wmo:42401:1,2020-05-01T10:34:00Z,27.5093,-90.5564,26.0,25.4,11111222
Amerada Hess,ioos:station:wmo:42401:1,2020-05-01T10:54:00Z,27.5093,-90.5564,26.0,25.4,11111222
Amerada Hess,ioos:station:wmo:42401:1,2020-05-01T11:14:00Z,27.5093,-90.5564,26.0,25.4,11111222
Amerada Hess,ioos:station:wmo:42401:1,2020-05-01T11:34:00Z,27.5093,-90.5564,26.0,25.4,11111222
Amerada Hess,ioos:station:wmo:42401:1,2020-05-01T11:54:00Z,27.5093,-90.5564,26.0,25.4,11111222
Amerada Hess,ioos:station:wmo:42401:1,2020-05-01T12:14:00Z,27.5093,-90.5564,26.0,25.4,11111222
Amerada Hess,ioos:station:wmo:42401:1,2020-05-01T12:34:00Z,27.5093,-90.5564,26.0,25.4,11111222
Amerada Hess,ioos:station:wmo:42401:1,2020-05-01T12:54:00Z,27.5093,-90.5564,26.0,25.3,11111222
Amerada Hess,ioos:station:wmo:42401:1,2020-05-01T13:14:00Z,27.5093,-90.5564,26.0,25.3,11111222
Amerada Hess,ioos:station:wmo:42401:1,2020-05-01T13:33:00Z,27.5093,-90.5564,26.0,25.3,11111222
Amerada Hess,ioos:station:wmo:42401:1,2020-05-01T13:53:00Z,27.5093,-90.5564,26.0,25.3,11111222
Amerada Hess,ioos:station:wmo:42401:1,2020-05-01T14:13:00Z,27.5093,-90.5564,26.0,25.3,11111222
Amerada Hess,ioos:station:wmo:42401:1,2020-05-01T14:33:00Z,27.5093,-90.5564,26.0,25.3,11111222
Amerada Hess,ioos:station:wmo:42401:1,2020-05-01T14:53:00Z,27.5093,-90.5564,26.0,25.3,11111222
Amerada Hess,ioos:station:wmo:42401:1,2020-05-01T15:13:00Z,27.5093,-90.5564,26.0,25.3,11111222
Amerada Hess,ioos:station:wmo:42401:1,2020-05-01T15:33:00Z,27.5093,-90.5564,26.0,25.3,11111222
Amerada Hess,ioos:station:wmo:42401:1,2020-05-01T15:53:00Z,27.5093,-90.5564,26.0,25.3,11111222
Amerada Hess,ioos:station:wmo:42401:1,2020-05-01T16:13:00Z,27.5093,-90.5564,26.0,25.2,11111222
Amerada Hess,ioos:station:wmo:42401:1,2020-05-01T16:33:00Z,27.5093,-90.5564,26.0,25.2,11111222
Amerada Hess,ioos:station:wmo:42401:1,2020-05-01T16:53:00Z,27.5093,-90.5564,26.0,25.1,11111222
Amerada Hess,ioos:station:wmo:42401:1,2020-05-01T17:13:00Z,27.5093,-90.5564,26.0,25.0,11111222
Amerada Hess,ioos:station:wmo:42401:1,2020-05-01T17:33:00Z,27.5093,-90.5564,26.0,24.9,11111222
Amerada Hess,ioos:station:wmo:42401:1,2020-05-01T17:53:00Z,27.5093,-90.5564,26.0,24.9,11111222
Amerada Hess,ioos:station:wmo:42401:1,2020-05-01T18:12:00Z,27.5093,-90.5564,26.0,24.7,11111222
Amerada Hess,ioos:station:wmo:42401:1,2020-05-01T18:32:00Z,27.5093,-90.5564,26.0,24.6,11111222
Amerada Hess,ioos:station:wmo:42401:1,2020-05-01T18:52:00Z,27.5093,-90.5564,26.0,24.5,11111222
Amerada Hess,ioos:station:wmo:42401:1,2020-05-01T19:11:00Z,27.5093,-90.5564,26.0,24.6,11111222
Amerada Hess,ioos:station:wmo:42401:1,2020-05-01T19:31:00Z,27.5093,-90.5564,26.0,24.6,11111222
Amerada Hess,ioos:station:wmo:42401:1,2020-05-01T19:50:00Z,27.5093,-90.5564,26.0,24.6,11111222
Amerada Hess,ioos:station:wmo:42401:1,2020-05-01T20:10:00Z,27.5093,-90.5564,26.0,24.6,11111222
Amerada Hess,ioos:station:wmo:42401:1,2020-05-01T20:30:00Z,27.5093,-90.5564,26.0,24.6,11111222
Amerada Hess,ioos:station:wmo:42401:1,2020-05-01T20:49:00Z,27.5093,-90.5564,26.0,24.7,11111222
Amerada Hess,ioos:station:wmo:42401:1,2020-05-01T21:09:00Z,27.5093,-90.5564,26.0,24.7,11111222
Amerada Hess,ioos:station:wmo:42401:1,2020-05-01T21:29:00Z,27.5093,-90.5564,26.0,24.7,11111222
Amerada Hess,ioos:station:wmo:42401:1,2020-05-01T21:49:00Z,27.5093,-90.5564,26.0,24.8,11111222
Amerada Hess,ioos:station:wmo:42401:1,2020-05-01T22:08:00Z,27.5093,-90.5564,26.0,24.8,11111222
Amerada Hess,ioos:station:wmo:42401:1,2020-05-01T22:28:00Z,27.5093,-90.5564,26.0,24.8,11111222
Amerada Hess,ioos:station:wmo:42401:1,2020-05-01T22:48:00Z,27.5093,-90.5564,26.0,24.8,11111222
Amerada Hess,ioos:station:wmo:42401:1,2020-05-01T23:08:00Z,27.5093,-90.5564,26.0,24.8,11111222
Amerada Hess,ioos:station:wmo:42401:1,2020-05-01T23:28:00Z,27.5093,-90.5564,26.0,24.8,11111222
Amerada Hess,ioos:station:wmo:42401:1,2020-05-01T23:48:00Z,27.5093,-90.5564,26.0,24.8,11111222
Amerada Hess,ioos:station:wmo:42401:1,2020-05-02T00:07:00Z,27.5093,-90.5564,26.0,24.8,11111222
Amerada Hess,ioos:station:wmo:42401:1,2020-05-02T00:27:00Z,27.5093,-90.5564,26.0,24.8,11111222
Amerada Hess,ioos:station:wmo:42401:1,2020-05-02T00:47:00Z,27.5093,-90.5564,26.0,24.8,11111222
Amerada Hess,ioos:station:wmo:42401:1,2020-05-02T01:07:00Z,27.5093,-90.5564,26.0,24.8,11111222
Amerada Hess,ioos:station:wmo:42401:1,2020-05-02T01:27:00Z,27.5093,-90.5564,26.0,24.8,11111222
Amerada Hess,ioos:station:wmo:42401:1,2020-05-02T01:47:00Z,27.5093,-90.5564,26.0,24.8,11111222
Amerada Hess,ioos:station:wmo:42401:1,2020-05-02T02:07:00Z,27.5093,-90.5564,26.0,24.8,11111222
Amerada Hess,ioos:station:wmo:42401:1,2020-05-02T02:27:00Z,27.5093,-90.5564,26.0,24.8,11111222
Amerada Hess,ioos:station:wmo:42401:1,2020-05-02T02:47:00Z,27.5093,-90.5564,26.0,24.8,11111222
Amerada Hess,ioos:station:wmo:42401:1,2020-05-02T03:07:00Z,27.5093,-90.5564,26.0,24.8,11111222
Amerada Hess,ioos:station:wmo:42401:1,2020-05-02T03:27:00Z,27.5093,-90.5564,26.0,24.8,11111222
Amerada Hess,ioos:station:wmo:42401:1,2020-05-02T03:47:00Z,27.5093,-90.5564,26.0,24.8,11111222
Amerada Hess,ioos:station:wmo:42401:1,2020-05-02T04:07:00Z,27.5093,-90.5564,26.0,24.8,11111222
Amerada Hess,ioos:station:wmo:42401:1,2020-05-02T04:27:00Z,27.5093,-90.5564,26.0,24.8,11111222
Amerada Hess,ioos:station:wmo:42401:1,2020-05-02T04:47:00Z,27.5093,-90.5564,26.0,24.8,11111222
Amerada Hess,ioos:station:wmo:42401:1,2020-05-02T05:07:00Z,27.5093,-90.5564,26.0,24.8,11111222
Amerada Hess,ioos:station:wmo:42401:1,2020-05-02T05:27:00Z,27.5093,-90.5564,26.0,24.9,11111222
Amerada Hess,ioos:station:wmo:42401:1,2020-05-02T05:47:00Z,27.5093,-90.5564,26.0,24.9,11111222
Amerada Hess,ioos:station:wmo:42401:1,2020-05-02T06:07:00Z,27.5093,-90.5564,26.0,24.9,11111222
Amerada Hess,ioos:station:wmo:42401:1,2020-05-02T06:27:00Z,27.5093,-90.5564,26.0,24.9,11111222
Amerada Hess,ioos:station:wmo:42401:1,2020-05-02T06:47:00Z,27.5093,-90.5564,26.0,24.9,11111222
Amerada Hess,ioos:station:wmo:42401:1,2020-05-02T07:07:00Z,27.5093,-90.5564,26.0,24.9,11111222
Amerada Hess,ioos:station:wmo:42401:1,2020-05-02T07:27:00Z,27.5093,-90.5564,26.0,24.9,11111222
Amerada Hess,ioos:station:wmo:42401:1,2020-05-02T07:47:00Z,27.5093,-90.5564,26.0,24.9,11111222
Amerada Hess,ioos:station:wmo:42401:1,2020-05-02T08:07:00Z,27.5093,-90.5564,26.0,24.9,11111222
Amerada Hess,ioos:station:wmo:42401:1,2020-05-02T08:27:00Z,27.5093,-90.5564,26.0,24.9,11111222
Amerada Hess,ioos:station:wmo:42401:1,2020-05-02T08:47:00Z,27.5093,-90.5564,26.0,24.9,11111222
Amerada Hess,ioos:station:wmo:42401:1,2020-05-02T09:07:00Z,27.5093,-90.5564,26.0,24.9,11111222
Amerada Hess,ioos:station:wmo:42401:1,2020-05-02T09:27:00Z,27.5093,-90.5564,26.0,24.9,11111222
Amerada Hess,ioos:station:wmo:42401:1,2020-05-02T09:47:00Z,27.5093,-90.5564,26.0,24.9,11111222
Amerada Hess,ioos:station:wmo:42401:1,2020-05-02T10:07:00Z,27.5093,-90.5564,26.0,24.9,11111222
Amerada Hess,ioos:station:wmo:42401:1,2020-05-02T10:27:00Z,27.5093,-90.5564,26.0,24.9,11111222
Amerada Hess,ioos:station:wmo:42401:1,2020-05-02T10:47:00Z,27.5093,-90.5564,26.0,24.9,11111222
Amerada Hess,ioos:station:wmo:42401:1,2020-05-02T11:07:00Z,27.5093,-90.5564,26.0,24.9,11111222
Amerada Hess,ioos:station:wmo:42401:1,2020-05-02T11:27:00Z,27.5093,-90.5564,26.0,24.9,11111222
Amerada Hess,ioos:station:wmo:42401:1,2020-05-02T11:47:00Z,27.5093,-90.5564,26.0,24.9,11111222
Amerada Hess,ioos:station:wmo:42401:1,2020-05-02T12:07:00Z,27.5093,-90.5564,26.0,24.9,11111222
Amerada Hess,ioos:station:wmo:42401:1,2020-05-02T12:27:00Z,27.5093,-90.5564,26.0,24.9,11111222
Amerada Hess,ioos:station:wmo:42401:1,2020-05-02T12:46:00Z,27.5093,-90.5564,26.0,24.9,11111222
Amerada Hess,ioos:station:wmo:42401:1,2020-05-02T13:06:00Z,27.5093,-90.5564,26.0,24.9,11111222
Amerada Hess,ioos:station:wmo:42401:1,2020-05-02T13:26:00Z,27.5093,-90.5564,26.0,25.0,11111222
Amerada Hess,ioos:station:wmo:42401:1,2020-05-02T13:46:00Z,27.5093,-90.5564,26.0,25.1,11111222
Amerada Hess,ioos:station:wmo:42401:1,2020-05-02T14:06:00Z,27.5093,-90.5564,26.0,25.1,11111222
Amerada Hess,ioos:station:wmo:42401:1,2020-05-02T14:26:00Z,27.5093,-90.5564,26.0,25.1,11111222
Amerada Hess,ioos:station:wmo:42401:1,2020-05-02T14:46:00Z,27.5093,-90.5564,26.0,25.2,11111222
Amerada Hess,ioos:station:wmo:42401:1,2020-05-02T15:06:00Z,27.5093,-90.5564,26.0,25.3,11111222
Amerada Hess,ioos:station:wmo:42401:1,2020-05-02T15:26:00Z,27.5093,-90.5564,26.0,25.3,11111222
Amerada Hess,ioos:station:wmo:42401:1,2020-05-02T15:46:00Z,27.5093,-90.5564,26.0,25.3,11111222
Amerada Hess,ioos:station:wmo:42401:1,2020-05-02T16:06:00Z,27.5093,-90.5564,26.0,25.3,11111222
Amerada Hess,ioos:station:wmo:42401:1,2020-05-02T16:26:00Z,27.5093,-90.5564,26.0,25.3,11111222
Amerada Hess,ioos:station:wmo:42401:1,2020-05-02T16:46:00Z,27.5093,-90.5564,26.0,25.3,11111222
Amerada Hess,ioos:station:wmo:42401:1,2020-05-02T17:06:00Z,27.5093,-90.5564,26.0,25.3,11111222
Amerada Hess,ioos:station:wmo:42401:1,2020-05-02T17:26:00Z,27.5093,-90.5564,26.0,25.3,11111222
Amerada Hess,ioos:station:wmo:42401:1,2020-05-02T17:46:00Z,27.5093,-90.5564,26.0,25.3,11111222
Amerada Hess,ioos:station:wmo:42401:1,2020-05-02T18:06:00Z,27.5093,-90.5564,26.0,25.3,11111222
Amerada Hess,ioos:station:wmo:42401:1,2020-05-02T18:26:00Z,27.5093,-90.5564,26.0,25.3,11111222
Amerada Hess,ioos:station:wmo:42401:1,2020-05-02T18:46:00Z,27.5093,-90.5564,26.0,25.3,11111222
Amerada Hess,ioos:station:wmo:42401:1,2020-05-02T19:06:00Z,27.5093,-90.5564,26.0,25.3,11111222
Amerada Hess,ioos:station:wmo:42401:1,2020-05-02T19:26:00Z,27.5093,-90.5564,26.0,25.3,11111222
Amerada Hess,ioos:station:wmo:42401:1,2020-05-02T19:46:00Z,27.5093,-90.5564,26.0,25.3,11111222
Amerada Hess,ioos:station:wmo:42401:1,2020-05-02T20:06:00Z,27.5093,-90.5564,26.0,25.3,11111222
Amerada Hess,ioos:station:wmo:42401:1,2020-05-02T20:25:00Z,27.5093,-90.5564,26.0,25.3,11111222
Amerada Hess,ioos:station:wmo:42401:1,2020-05-02T20:45:00Z,27.5093,-90.5564,26.0,25.3,11111222
Amerada Hess,ioos:station:wmo:42401:1,2020-05-02T21:04:00Z,27.5093,-90.5564,26.0,25.3,11111222
Amerada Hess,ioos:station:wmo:42401:1,2020-05-02T21:24:00Z,27.5093,-90.5564,26.0,25.3,11111222
Amerada Hess,ioos:station:wmo:42401:1,2020-05-02T21:44:00Z,27.5093,-90.5564,26.0,25.3,11111222
Amerada Hess,ioos:station:wmo:42401:1,2020-05-02T22:04:00Z,27.5093,-90.5564,26.0,25.4,11111222
Amerada Hess,ioos:station:wmo:42401:1,2020-05-02T22:24:00Z,27.5093,-90.5564,26.0,25.3,11111222
Amerada Hess,ioos:station:wmo:42401:1,2020-05-02T22:44:00Z,27.5093,-90.5564,26.0,25.3,11111222
Amerada Hess,ioos:station:wmo:42401:1,2020-05-02T23:03:00Z,27.5093,-90.5564,26.0,25.3,11111222
Amerada Hess,ioos:station:wmo:42401:1,2020-05-02T23:23:00Z,27.5093,-90.5564,26.0,25.3,11111222
Amerada Hess,ioos:station:wmo:42401:1,2020-05-02T23:43:00Z,27.5093,-90.5564,26.0,25.3,11111222
Amerada Hess,ioos:station:wmo:42401:1,2020-05-03T00:03:00Z,27.5093,-90.5564,26.0,25.3,11111222
Amerada Hess,ioos:station:wmo:42401:1,2020-05-03T00:23:00Z,27.5093,-90.5564,26.0,25.3,11111222
Amerada Hess,ioos:station:wmo:42401:1,2020-05-03T00:43:00Z,27.5093,-90.5564,26.0,25.3,11111222
Amerada Hess,ioos:station:wmo:42401:1,2020-05-03T01:03:00Z,27.5093,-90.5564,26.0,25.3,11111222
Amerada Hess,ioos:station:wmo:42401:1,2020-05-03T01:23:00Z,27.5093,-90.5564,26.0,25.4,11111222
Amerada Hess,ioos:station:wmo:42401:1,2020-05-03T01:43:00Z,27.5093,-90.5564,26.0,25.4,11111222
Amerada Hess,ioos:station:wmo:42401:1,2020-05-03T02:03:00Z,27.5093,-90.5564,26.0,25.3,11111222
Amerada Hess,ioos:station:wmo:42401:1,2020-05-03T02:23:00Z,27.5093,-90.5564,26.0,25.3,11111222
Amerada Hess,ioos:station:wmo:42401:1,2020-05-03T02:43:00Z,27.5093,-90.5564,26.0,25.3,11111222
Amerada Hess,ioos:station:wmo:42401:1,2020-05-03T03:03:00Z,27.5093,-90.5564,26.0,25.3,11111222
Amerada Hess,ioos:station:wmo:42401:1,2020-05-03T03:23:00Z,27.5093,-90.5564,26.0,25.3,11111222
Amerada Hess,ioos:station:wmo:42401:1,2020-05-03T03:43:00Z,27.5093,-90.5564,26.0,25.3,11111222
Amerada Hess,ioos:station:wmo:42401:1,2020-05-03T04:03:00Z,27.5093,-90.5564,26.0,25.3,11111222
Amerada Hess,ioos:station:wmo:42401:1,2020-05-03T04:22:00Z,27.5093,-90.5564,26.0,25.3,11111222
Amerada Hess,ioos:station:wmo:42401:1,2020-05-03T04:42:00Z,27.5093,-90.5564,26.0,25.3,11111222
Amerada Hess,ioos:station:wmo:42401:1,2020-05-03T05:02:00Z,27.5093,-90.5564,26.0,25.3,11111222
Amerada Hess,ioos:station:wmo:42401:1,2020-05-03T05:22:00Z,27.5093,-90.5564,26.0,25.3,11111222
Amerada Hess,ioos:station:wmo:42401:1,2020-05-03T05:42:00Z,27.5093,-90.5564,26.0,25.3,11111222
Amerada Hess,ioos:station:wmo:42401:1,2020-05-03T06:02:00Z,27.5093,-90.5564,26.0,25.3,11111222
Amerada Hess,ioos:station:wmo:42401:1,2020-05-03T06:22:00Z,27.5093,-90.5564,26.0,25.3,11111222
Amerada Hess,ioos:station:wmo:42401:1,2020-05-03T06:41:00Z,27.5093,-90.5564,26.0,25.3,11111222
Amerada Hess,ioos:station:wmo:42401:1,2020-05-03T07:01:00Z,27.5093,-90.5564,26.0,25.3,11111222
Amerada Hess,ioos:station:wmo:42401:1,2020-05-03T07:21:00Z,27.5093,-90.5564,26.0,25.3,11111222
Amerada Hess,ioos:station:wmo:42401:1,2020-05-03T07:41:00Z,27.5093,-90.5564,26.0,25.3,11111222
Amerada Hess,ioos:station:wmo:42401:1,2020-05-03T08:00:00Z,27.5093,-90.5564,26.0,25.3,11111222
Amerada Hess,ioos:station:wmo:42401:1,2020-05-03T08:20:00Z,27.5093,-90.5564,26.0,25.3,11111222
Amerada Hess,ioos:station:wmo:42401:1,2020-05-03T08:40:00Z,27.5093,-90.5564,26.0,25.3,11111222
Amerada Hess,ioos:station:wmo:42401:1,2020-05-03T09:00:00Z,27.5093,-90.5564,26.0,25.4,11111222
Amerada Hess,ioos:station:wmo:42401:1,2020-05-03T09:19:00Z,27.5093,-90.5564,26.0,25.4,11111222
Amerada Hess,ioos:station:wmo:42401:1,2020-05-03T09:39:00Z,27.5093,-90.5564,26.0,25.4,11111222
Amerada Hess,ioos:station:wmo:42401:1,2020-05-03T09:58:00Z,27.5093,-90.5564,26.0,25.3,11111222
Amerada Hess,ioos:station:wmo:42401:1,2020-05-03T10:17:00Z,27.5093,-90.5564,26.0,25.3,11111222
Amerada Hess,ioos:station:wmo:42401:1,2020-05-03T10:36:00Z,27.5093,-90.5564,26.0,25.4,11111222
Amerada Hess,ioos:station:wmo:42401:1,2020-05-03T10:56:00Z,27.5093,-90.5564,26.0,25.4,11111222
Amerada Hess,ioos:station:wmo:42401:1,2020-05-03T11:16:00Z,27.5093,-90.5564,26.0,25.4,11111222
Amerada Hess,ioos:station:wmo:42401:1,2020-05-03T11:36:00Z,27.5093,-90.5564,26.0,25.4,11111222
Amerada Hess,ioos:station:wmo:42401:1,2020-05-03T11:56:00Z,27.5093,-90.5564,26.0,25.4,11111222
Amerada Hess,ioos:station:wmo:42401:1,2020-05-03T12:16:00Z,27.5093,-90.5564,26.0,25.4,11111222
Amerada Hess,ioos:station:wmo:42401:1,2020-05-03T12:36:00Z,27.5093,-90.5564,26.0,25.3,11111222
Amerada Hess,ioos:station:wmo:42401:1,2020-05-03T12:56:00Z,27.5093,-90.5564,26.0,25.3,11111222
Amerada Hess,ioos:station:wmo:42401:1,2020-05-03T13:16:00Z,27.5093,-90.5564,26.0,25.3,11111222
Amerada Hess,ioos:station:wmo:42401:1,2020-05-03T13:36:00Z,27.5093,-90.5564,26.0,25.3,11111222
Amerada Hess,ioos:station:wmo:42401:1,2020-05-03T13:55:00Z,27.5093,-90.5564,26.0,25.3,11111222
Amerada Hess,ioos:station:wmo:42401:1,2020-05-03T14:15:00Z,27.5093,-90.5564,26.0,25.3,11111222
Amerada Hess,ioos:station:wmo:42401:1,2020-05-03T14:35:00Z,27.5093,-90.5564,26.0,25.3,11111222
Amerada Hess,ioos:station:wmo:42401:1,2020-05-03T14:54:00Z,27.5093,-90.5564,26.0,25.3,11111222
Amerada Hess,ioos:station:wmo:42401:1,2020-05-03T15:14:00Z,27.5093,-90.5564,26.0,25.3,11111222
Amerada Hess,ioos:station:wmo:42401:1,2020-05-03T15:34:00Z,27.5093,-90.5564,26.0,25.2,11111222
Amerada Hess,ioos:station:wmo:42401:1,2020-05-03T15:53:00Z,27.5093,-90.5564,26.0,25.2,11111222
Amerada Hess,ioos:station:wmo:42401:1,2020-05-03T16:12:00Z,27.5093,-90.5564,26.0,25.2,11111222
Amerada Hess,ioos:station:wmo:42401:1,2020-05-03T16:31:00Z,27.5093,-90.5564,26.0,25.2,11111222
Amerada Hess,ioos:station:wmo:42401:1,2020-05-03T16:51:00Z,27.5093,-90.5564,26.0,25.2,11111222
Amerada Hess,ioos:station:wmo:42401:1,2020-05-03T17:11:00Z,27.5093,-90.5564,26.0,25.2,11111222
Amerada Hess,ioos:station:wmo:42401:1,2020-05-03T17:31:00Z,27.5093,-90.5564,26.0,25.2,11111222
Amerada Hess,ioos:station:wmo:42401:1,2020-05-03T17:51:00Z,27.5093,-90.5564,26.0,25.2,11111222
Amerada Hess,ioos:station:wmo:42401:1,2020-05-03T18:11:00Z,27.5093,-90.5564,26.0,25.2,11111222
Amerada Hess,ioos:station:wmo:42401:1,2020-05-03T18:31:00Z,27.5093,-90.5564,26.0,25.2,11111222
Amerada Hess,ioos:station:wmo:42401:1,2020-05-03T18:50:00Z,27.5093,-90.5564,26.0,25.2,11111222
Amerada Hess,ioos:station:wmo:42401:1,2020-05-03T19:09:00Z,27.5093,-90.5564,26.0,25.3,11111222
Amerada Hess,ioos:station:wmo:42401:1,2020-05-03T19:29:00Z,27.5093,-90.5564,26.0,25.3,11111222
Amerada Hess,ioos:station:wmo:42401:1,2020-05-03T19:49:00Z,27.5093,-90.5564,26.0,25.3,11111222
Amerada Hess,ioos:station:wmo:42401:1,2020-05-03T20:09:00Z,27.5093,-90.5564,26.0,25.3,11111222
Amerada Hess,ioos:station:wmo:42401:1,2020-05-03T20:29:00Z,27.5093,-90.5564,26.0,25.3,11111222
Amerada Hess,ioos:station:wmo:42401:1,2020-05-03T20:48:00Z,27.5093,-90.5564,26.0,25.3,11111222
Amerada Hess,ioos:station:wmo:42401:1,2020-05-03T21:07:00Z,27.5093,-90.5564,26.0,25.2,11111222
Amerada Hess,ioos:station:wmo:42401:1,2020-05-03T21:27:00Z,27.5093,-90.5564,26.0,25.2,11111222
Amerada Hess,ioos:station:wmo:42401:1,2020-05-03T21:47:00Z,27.5093,-90.5564,26.0,25.2,11111222
Amerada Hess,ioos:station:wmo:42401:1,2020-05-03T22:06:00Z,27.5093,-90.5564,26.0,25.2,11111222
Amerada Hess,ioos:station:wmo:42401:1,2020-05-03T22:26:00Z,27.5093,-90.5564,26.0,25.2,11111222
Amerada Hess,ioos:station:wmo:42401:1,2020-05-03T22:46:00Z,27.5093,-90.5564,26.0,25.2,11111222
Amerada Hess,ioos:station:wmo:42401:1,2020-05-03T23:06:00Z,27.5093,-90.5564,26.0,25.2,11111222
Amerada Hess,ioos:station:wmo:42401:1,2020-05-03T23:26:00Z,27.5093,-90.5564,26.0,25.3,11111222
Amerada Hess,ioos:station:wmo:42401:1,2020-05-03T23:46:00Z,27.5093,-90.5564,26.0,25.3,11111222
Amerada Hess,ioos:station:wmo:42401:1,2020-05-04T00:06:00Z,27.5093,-90.5564,26.0,25.3,11111222
Amerada Hess,ioos:station:wmo:42401:1,2020-05-04T00:26:00Z,27.5093,-90.5564,26.0,25.3,11111222
Amerada Hess,ioos:station:wmo:42401:1,2020-05-04T00:46:00Z,27.5093,-90.5564,26.0,25.4,11111222
Amerada Hess,ioos:station:wmo:42401:1,2020-05-04T01:06:00Z,27.5093,-90.5564,26.0,25.4,11111222
Amerada Hess,ioos:station:wmo:42401:1,2020-05-04T01:26:00Z,27.5093,-90.5564,26.0,25.4,11111222
Amerada Hess,ioos:station:wmo:42401:1,2020-05-04T01:46:00Z,27.5093,-90.5564,26.0,25.4,11111222
Amerada Hess,ioos:station:wmo:42401:1,2020-05-04T02:06:00Z,27.5093,-90.5564,26.0,25.4,11111222
Amerada Hess,ioos:station:wmo:42401:1,2020-05-04T02:26:00Z,27.5093,-90.5564,26.0,25.4,11111222
Amerada Hess,ioos:station:wmo:42401:1,2020-05-04T02:46:00Z,27.5093,-90.5564,26.0,25.4,11111222
Amerada Hess,ioos:station:wmo:42401:1,2020-05-04T03:06:00Z,27.5093,-90.5564,26.0,25.5,11111222
Amerada Hess,ioos:station:wmo:42401:1,2020-05-04T03:26:00Z,27.5093,-90.5564,26.0,25.5,11111222
Amerada Hess,ioos:station:wmo:42401:1,2020-05-04T03:46:00Z,27.5093,-90.5564,26.0,25.4,11111222
Amerada Hess,ioos:station:wmo:42401:1,2020-05-04T04:05:00Z,27.5093,-90.5564,26.0,25.4,11111222
Amerada Hess,ioos:station:wmo:42401:1,2020-05-04T04:25:00Z,27.5093,-90.5564,26.0,25.4,11111222
Amerada Hess,ioos:station:wmo:42401:1,2020-05-04T04:45:00Z,27.5093,-90.5564,26.0,25.4,11111222
Amerada Hess,ioos:station:wmo:42401:1,2020-05-04T05:05:00Z,27.5093,-90.5564,26.0,25.4,11111222
Amerada Hess,ioos:station:wmo:42401:1,2020-05-04T05:25:00Z,27.5093,-90.5564,26.0,25.4,11111222
Amerada Hess,ioos:station:wmo:42401:1,2020-05-04T05:45:00Z,27.5093,-90.5564,26.0,25.4,11111222
Amerada Hess,ioos:station:wmo:42401:1,2020-05-04T06:05:00Z,27.5093,-90.5564,26.0,25.4,11111222
Amerada Hess,ioos:station:wmo:42401:1,2020-05-04T06:25:00Z,27.5093,-90.5564,26.0,25.4,11111222
Amerada Hess,ioos:station:wmo:42401:1,2020-05-04T06:45:00Z,27.5093,-90.5564,26.0,25.5,11111222
Amerada Hess,ioos:station:wmo:42401:1,2020-05-04T07:05:00Z,27.5093,-90.5564,26.0,25.5,11111222
Amerada Hess,ioos:station:wmo:42401:1,2020-05-04T07:25:00Z,27.5093,-90.5564,26.0,25.5,11111222
Amerada Hess,ioos:station:wmo:42401:1,2020-05-04T07:45:00Z,27.5093,-90.5564,26.0,25.6,11111222
Amerada Hess,ioos:station:wmo:42401:1,2020-05-04T08:05:00Z,27.5093,-90.5564,26.0,25.8,11111222
Amerada Hess,ioos:station:wmo:42401:1,2020-05-04T08:24:00Z,27.5093,-90.5564,26.0,25.9,11111222
Amerada Hess,ioos:station:wmo:42401:1,2020-05-04T08:44:00Z,27.5093,-90.5564,26.0,25.9,11111222
Amerada Hess,ioos:station:wmo:42401:1,2020-05-04T09:04:00Z,27.5093,-90.5564,26.0,25.9,11111222
Amerada Hess,ioos:station:wmo:42401:1,2020-05-04T09:24:00Z,27.5093,-90.5564,26.0,26.0,11111222
Amerada Hess,ioos:station:wmo:42401:1,2020-05-04T09:44:00Z,27.5093,-90.5564,26.0,26.1,11111222
Amerada Hess,ioos:station:wmo:42401:1,2020-05-04T10:04:00Z,27.5093,-90.5564,26.0,26.1,11111222
Amerada Hess,ioos:station:wmo:42401:1,2020-05-04T10:24:00Z,27.5093,-90.5564,26.0,26.1,11111222